Location: Goettingen
(51.5300°N, 9.9433°E)
Time: 18:17:17
(UTC+02:00)

ISS - Pass Details

Date: 07 May 2026
Orbit: 414 x 424 km, 51.6° (Epoch: 13 May)

Event Time Altitude Azimuth Distance (km) Brightness Sun altitude
Exits shadow 01:46:40 24° 86° (E) 907 -2.0 -21.4°
Drops below altitude 10° 01:48:09 10° 87° (E) 1,498 -0.8 -21.4°
Sets 01:50:15 0° 88° (E) 2,364 0.2 -21.3°
